Bellingham, WA
on Saturday, November 3, 2012

Saturday
Previous Day Next Day
Daily Summary
 ActualAverageRecord
Temperature
Mean Temperature °F 46°F  
Max Temperature 57°F 53°F 67°F (2010)
Min Temperature 53°F 39°F 22°F (2002)
Degree Days
Heating Degree Days 10 19  
Month to date heating degree days 57  
Cooling Degree Days 0 0  
Month to date cooling degree days 0  
Year to date cooling degree days 42  
Growing Degree Days5 (Base °F )  
Moisture
Dew Point 51°F   
Average Humidity 85    
Maximum Humidity 94    
Minimum Humidity 74    
Precipitation
Precipitation 0.10 in 0.18 in 2.83 in (1989)
Month to date precipitation 0.55  
Year to date precipitation 26.36  
Wind
Wind Speed 8 mph   
Max Wind Speed 17 mph   
Max Gust Speed 24 mph   
Visibility 10 miles   
Events Rain   

Key: T is trace of precipitation, MM is missing value
Source: NWS Daily Summary
Time(PDT)TemperatureDew PointHumidity Pressure Visibility Wind DirectionWind SpeedGust SpeedPrecipitationEvents Conditions
12:53 AM 54.0°F 50.0°F 86% 29.94 in 10.0 miles East 5.8 mph - 0.02 in Rain Light Rain
1:53 AM 54.0°F 50.0°F 86% 29.94 in 10.0 miles ESE 3.5 mph - 0.01 in Rain Light Rain
2:53 AM 53.1°F 51.1°F 93% 29.95 in 10.0 miles Calm Calm - 0.00 in   Overcast
3:53 AM 53.1°F 51.1°F 93% 29.95 in 10.0 miles Calm Calm - N/A   Overcast
4:53 AM 57.0°F 48.9°F 74% 29.95 in 10.0 miles SSE 11.5 mph - N/A   Overcast
5:53 AM 57.0°F 48.9°F 74% 29.95 in 10.0 miles SSE 17.3 mph 24.2 mph N/A   Overcast
6:53 AM 57.0°F 48.9°F 74% 29.96 in 10.0 miles SSE 13.8 mph 24.2 mph 0.00 in Rain Light Rain
7:53 AM 57.0°F 50.0°F 77% 29.98 in 10.0 miles SSE 12.7 mph 19.6 mph 0.00 in   Overcast
8:53 AM 57.0°F 50.0°F 77% 29.99 in 10.0 miles SSE 11.5 mph 21.9 mph N/A   Overcast
9:53 AM 57.0°F 50.0°F 77% 29.99 in 10.0 miles SSE 10.4 mph 21.9 mph N/A   Overcast
10:53 AM 57.9°F 50.0°F 75% 29.99 in 10.0 miles SSE 12.7 mph 20.7 mph N/A   Overcast
11:53 AM 57.9°F 51.1°F 78% 29.99 in 10.0 miles SSE 11.5 mph 21.9 mph 0.00 in Rain Light Rain
12:53 PM 55.9°F 51.1°F 84% 30.01 in 10.0 miles Variable 6.9 mph - 0.00 in Rain Light Rain
1:53 PM 55.0°F 52.0°F 89% 30.02 in 6.0 miles South 6.9 mph - 0.05 in Rain Light Rain
2:53 PM 55.0°F 52.0°F 89% 30.02 in 10.0 miles SSW 3.5 mph - 0.02 in   Overcast
3:53 PM 55.0°F 52.0°F 89% 30.04 in 10.0 miles SSW 4.6 mph - 0.00 in   Overcast
4:51 PM 55.4°F 51.8°F 88% 30.03 in 10.0 miles South 5.8 mph - 0.00 in   Overcast
4:53 PM 55.0°F 52.0°F 89% 30.05 in 10.0 miles South 6.9 mph - 0.00 in   Overcast
5:53 PM 55.9°F 53.1°F 90% 30.06 in 10.0 miles SSE 8.1 mph - N/A   Overcast
6:21 PM 55.4°F 53.6°F 94% 30.04 in 10.0 miles South 8.1 mph - N/A   Overcast
6:53 PM 55.0°F 52.0°F 89% 30.08 in 10.0 miles South 8.1 mph - N/A   Overcast
7:14 PM 55.4°F 51.8°F 88% 30.07 in 10.0 miles South 9.2 mph - N/A   Overcast
7:21 PM 55.4°F 51.8°F 88% 30.07 in 10.0 miles South 8.1 mph - N/A   Overcast
7:29 PM 53.6°F 51.8°F 94% 30.08 in 10.0 miles South 10.4 mph - N/A   Mostly Cloudy
7:42 PM 55.4°F 51.8°F 88% 30.08 in 10.0 miles South 9.2 mph 17.3 mph N/A   Mostly Cloudy
7:51 PM 55.4°F 51.8°F 88% 30.09 in 10.0 miles South 15.0 mph 20.7 mph N/A   Mostly Cloudy
7:53 PM 55.0°F 52.0°F 89% 30.11 in 10.0 miles South 15.0 mph 20.7 mph N/A   Mostly Cloudy
8:53 PM 55.9°F 50.0°F 80% 30.13 in 10.0 miles South 9.2 mph - N/A   Mostly Cloudy
9:53 PM 55.0°F 50.0°F 83% 30.17 in 10.0 miles South 6.9 mph - 0.00 in Rain Light Rain
10:53 PM 55.0°F 50.0°F 83% 30.17 in 10.0 miles SSE 6.9 mph - 0.00 in   Overcast
11:53 PM 55.0°F 50.0°F 83% 30.18 in 10.0 miles South 3.5 mph - N/A   Mostly Cloudy
Moon Phase
Nov. 03 Nov. 06 Nov. 13 Nov. 20 Nov. 28
Sunrise:08:01 AM (PDT) Moon Rise:09:24 PM (PDT)11/3
Sunset:05:45 PM (PDT) Moon Set:12:17 PM (PDT)11/3

Copyright © 2014 The Weather Underground, Inc.